"2014-08-22 00:01:00",1290769,-5.006171,-2.018561,-71.31017,15.19481,-23.73273,15.28972,0,-0.9973449,-52.16723,12.29372,0,0.004,7999,0,0,0,10.75127,11.62508,10.14042,15.88525,16.46322,16.58824,17.13581,16.20743,14.18844,11.50704,"NAN","NAN",16.77223,-41.66527,-12.08883,-6.76215,-12.54718,0.3582062,37.59087,37.95031,37.8644,39.1371,37.92544,37.95256,38.30747,38.97208,37.24275,0.6860378,0.7027795,0.6987539,0.7593356,0.701607,0.7028775,0.7195866,0.7513521,0.6699864,1.000178,12.34884,13.47101,320.7,368.8,324.3,-47.48,10.83
"2014-08-22 00:02:00",1290770,-4.954898,-1.982723,-70.33883,15.16858,-23.62079,15.26329,0,-0.9973453,-51.32765,12.28685,0,0.004,7999,0,0,0,10.72838,11.63164,10.14369,15.88177,16.45973,16.58824,17.12574,16.21768,14.18188,11.48786,"NAN","NAN",16.77223,-41.73362,-12.11261,-6.776835,-12.56756,0.3582059,37.52758,37.96839,37.85536,39.15971,37.91188,37.96161,38.29843,38.94495,37.20206,0.6831015,0.7036256,0.6983315,0.7604333,0.7009729,0.7033004,0.7191587,0.7500448,0.668124,1.000153,12.34884,13.68367,321.5,368.7,325.1,-46.63,10.82
"2014-08-22 00:03:00",1290771,-4.90357,-1.964778,-69.65321,15.15219,-23.73276,15.24399,0,-0.997346,-50.48809,12.31323,0,0.004,7999,0,0,0,10.71855,11.63507,10.14697,15.88197,16.46342,16.6127,17.12246,16.22487,14.18516,11.4645,"NAN","NAN",16.76568,-41.77853,-12.13463,-6.796389,-12.59042,0.3582047,37.53436,37.95256,37.8531,39.18457,37.88475,38.01586,38.29391,38.97208,37.24275,0.6834145,0.7028812,0.6982269,0.7616494,0.6997061,0.7058555,0.718945,0.7513521,0.6699863,1.000127,12.34131,13.43624,322.1,368.5,326.1,-45.4,10.78
"2014-08-22 00:04:00",1290772,-4.886484,-1.97075,-68.79611,15.152,-23.78873,15.24399,0,-0.997346,-49.48056,12.28373,0,0.004,7999,0,0,0,10.71855,11.65771,10.16322,15.88525,16.46059,16.59174,17.13975,16.20764,14.18188,11.45483,"NAN","NAN",16.76896,-41.80214,-12.15763,-6.814386,-12.61512,0.3582047,37.62252,37.88927,37.88023,39.1371,37.92092,37.95031,38.29617,38.93817,37.19302,0.6875026,0.6999161,0.6994928,0.7593351,0.7013955,0.702771,0.7190518,0.7497189,0.6677104,1.000127,12.32624,13.76849,322.9,368.5,326.9,-44.47,10.77
"2014-08-22 00:05:00",1290773,-4.886531,-2.006601,-67.88194,15.15547,-23.45291,15.23415,0,-0.9973469,-48.8649,12.27375,0,0.004,7999,0,0,0,10.712,11.65459,10.15667,15.88853,16.46694,16.60243,17.14676,16.23576,14.17879,11.43833,"NAN","NAN",16.77922,-41.79149,-12.18079,-6.832466,-12.63743,0.3582037,37.56375,37.89153,37.88927,39.11676,37.90735,37.98195,38.28713,38.94495,37.23371,0.6847731,0.7000213,0.6999161,0.7583516,0.7007616,0.7042616,0.7186263,0.7500473,0.6695727,1.000115,12.32624,13.43913,323.9,368.7,327.5,-44.15,10.82
"2014-08-22 00:06:00",1290774,-4.880859,-2.018555,-67.3677,15.15219,-23.45292,15.23415,0,-0.9973471,-48.69699,12.26408,0,0.004,7999,0,0,0,10.71528,11.64147,10.14369,15.88177,16.45339,16.60244,17.14326,16.2218,14.17861,11.43521,"NAN","NAN",16.76896,-41.75473,-12.19956,-6.855387,-12.66047,0.3582032,37.55696,37.90509,37.88249,39.11901,37.90509,38.0249,38.29617,38.99016,37.22014,0.6844597,0.7006555,0.6995986,0.7584586,0.7006564,0.7062828,0.7190518,0.7522271,0.6689515,1.000089,12.30554,13.53304,324.4,368.7,327.6,-44.02,10.82
"2014-08-22 00:07:00",1290775,-4.846694,-2.000641,-67.4248,15.14235,-23.28498,15.2276,0,-0.9973466,-48.69696,12.2672,0,0.004,7999,0,0,0,10.73165,11.61852,10.14055,15.87849,16.45688,16.6162,17.14698,16.21483,14.17533,11.43506,"NAN","NAN",16.77595,-41.70222,-12.21494,-6.876677,-12.68351,0.3582035,37.56375,37.94126,37.85762,39.1258,37.89831,37.98874,38.29843,38.92009,37.22466,0.6847741,0.7023504,0.6984372,0.7587882,0.7003394,0.7045796,0.7191589,0.7488511,0.6691588,1.000076,12.3014,13.52756,324.3,368.9,327.6,-44.11,10.85
"2014-08-22 00:08:00",1290776,-4.835338,-1.988712,-67.42473,15.12596,-23.06107,15.21449,0,-0.9973455,-48.80885,12.27375,0,0.004,7999,0,0,0,10.75482,11.62821,10.14396,15.88197,16.44704,16.60921,17.13647,16.21873,14.17206,11.43179,"NAN","NAN",16.7659,-41.6444,-12.23801,-6.898804,-12.70744,0.3582053,37.54567,37.92092,37.85988,39.17779,37.91188,37.9277,38.31199,38.95626,37.2224,0.6839371,0.7013974,0.698543,0.7613117,0.7009724,0.7017136,0.7198009,0.7505921,0.6690555,1.000102,12.3014,13.42088,324.2,369,327.5,-44.35,10.88
"2014-08-22 00:09:00",1290777,-4.806861,-1.970795,-67.93899,15.11284,-22.66925,15.20465,0,-0.9973455,-49.36859,12.2934,0,0.004,7999,0,0,0,10.77089,11.661,10.15392,15.88525,16.44724,16.61969,17.13997,16.22242,14.17552,11.43179,"NAN","NAN",16.75956,-41.56308,-12.26017,-6.920893,-12.72874,0.3582053,37.55923,37.91413,37.8531,39.19587,37.89831,37.97065,38.29617,38.96304,37.23145,0.6845644,0.7010784,0.6982265,0.7622003,0.7003387,0.7037259,0.7190519,0.7509189,0.6694686,1.000127,12.3014,13.40524,323.6,369.4,327.1,-45.13,10.94
"2014-08-22 00:10:00",1290778,-4.749928,-1.934971,-67.99594,15.08002,-23.22892,15.18825,0,-0.9973428,-49.36845,12.30323,0,0.004,7999,0,0,0,10.77758,11.61837,10.14068,15.87951,16.45381,16.61969,17.15048,16.21853,14.17552,11.43179,"NAN","NAN",16.77288,-41.48165,-12.28323,-6.943016,-12.75352,0.3582081,37.55696,37.95483,37.8644,39.12354,37.94126,37.92544,38.29617,38.92913,37.23597,0.6844624,0.702987,0.6987539,0.7586799,0.7023483,0.7016081,0.7190518,0.7492865,0.6696756,1.000076,12.2788,13.3455,323.4,368.7,327.1,-44.41,10.82
"2014-08-22 00:11:00",1290779,-4.749938,-1.917058,-67.76734,15.0833,-23.06099,15.17514,0,-0.9973423,-49.36843,12.30652,0,0.004,7999,0,0,0,10.79763,11.60526,10.15419,15.88627,16.44704,16.6127,17.15048,16.2255,14.17879,11.42525,"NAN","NAN",16.77288,-41.39506,-12.30626,-6.963474,-12.77399,0.3582095,37.58183,37.89379,37.85762,39.17553,37.89831,37.99099,38.28713,38.93591,37.27214,0.685612,0.7001269,0.6984374,0.7612061,0.7003388,0.7046835,0.7186241,0.7496135,0.6713355,1.000076,12.2788,13.56365,323.6,368.8,327.1,-44.5,10.84
"2014-08-22 00:12:00",1290780,-4.710075,-1.899144,-67.36733,15.06363,-22.50124,15.15875,0,-0.9973417,-49.3684,12.31306,0,0.004,7999,0,0,0,10.79066,11.59869,10.13727,15.86947,16.45053,16.62668,17.15048,16.22571,14.17533,11.42198,"NAN","NAN",16.75607,-41.31651,-12.32844,-6.983943,-12.79617,0.3582098,37.54567,37.94126,37.8644,39.18909,37.89831,37.98195,38.29165,38.97208,37.24049,0.6839373,0.7023492,0.6987539,0.7618663,0.7003384,0.7042567,0.7188384,0.7513523,0.6698827,1.000076,12.2788,13.52962,323.9,369.3,327.2,-44.92,10.93
"2014-08-22 00:13:00",1290781,-4.681625,-1.887211,-67.7101,15.05052,-22.72511,15.14563,0,-0.9973407,-49.36835,12.30979,0,0.004,7999,0,0,0,10.78739,11.58559,10.15078,15.86988,16.44724,16.63367,17.15048,16.23269,14.17533,11.39252,"NAN","NAN",16.77331,-41.2276,-12.35321,-7.0077,-12.81668,0.3582115,37.57279,37.91413,37.87119,39.1484,37.91639,37.939,38.30295,38.9653,37.26535,0.6851917,0.7010781,0.6990702,0.7598834,0.7011843,0.7022431,0.719373,0.751025,0.6710245,1.000076,12.25998,13.44132,323.5,369,327.2,-44.62,10.87
"2014-08-22 00:14:00",1290782,-4.658844,-1.899155,-68.05294,15.0538,-23.11693,15.13252,0,-0.9973407,-49.42433,12.31636,0,0.004,7999,0,0,0,10.80431,11.53952,10.14396,15.86681,16.44047,16.62318,17.15376,16.24233,14.17206,11.38598,"NAN","NAN",16.76632,-41.15154,-12.37451,-7.033061,-12.83969,0.3582115,37.55696,37.93222,37.86666,39.12806,37.90283,38.00682,38.29165,38.94721,37.21788,0.6844601,0.7019261,0.698859,0.7588975,0.700551,0.7054279,0.7188382,0.7501532,0.6688489,1.000089,12.25621,13.55637,323.2,368.5,327.1,-44.15,10.78
"2014-08-22 00:15:00",1290783,-4.681639,-1.911105,-68.28147,15.0538,-22.83705,15.13907,0,-0.9973404,-50.04002,12.31965,0,0.004,7999,0,0,0,10.79407,11.53966,10.15419,15.8498,16.44375,16.61969,17.15048,16.23289,14.17861,11.36308,"NAN","NAN",16.7696,-41.07528,-12.40097,-7.054357,-12.86445,0.3582118,37.56149,37.87797,37.91188,39.10545,37.92318,37.94804,38.31425,38.92687,37.26987,0.6846688,0.6993878,0.7009742,0.7578041,0.7015013,0.7026653,0.7199081,0.7491755,0.671233,1.000076,12.25621,13.18734,322.9,368.8,326.5,-45.07,10.84
"2014-08-22 00:16:00",1290784,-4.721514,-1.91708,-68.73859,15.03084,-22.83705,15.12924,0,-0.9973404,-50.04001,12.28701,0,0.004,7999,0,0,0,10.79109,11.52671,10.13099,15.85369,16.43742,16.63039,17.15048,16.23659,14.17206,11.35654,"NAN","NAN",16.76653,-41.00704,-12.43422,-7.07645,-12.88832,0.3582119,37.56827,37.90735,37.87119,39.12127,37.89153,38.0249,38.27583,38.97886,37.23371,0.6849824,0.7007609,0.6990705,0.7585706,0.7000229,0.7062798,0.7180898,0.7516814,0.6695727,1.000076,12.25621,13.62178,322.3,368.8,326.4,-45.22,10.83
"2014-08-22 00:17:00",1290785,-4.767073,-1.946939,-69.25285,15.01445,-23.1729,15.11941,0,-0.9973405,-50.65573,12.25097,0,0.004,7999,0,0,0,10.76805,11.50033,10.09809,15.85062,16.44395,16.63367,17.15048,16.23618,14.17533,11.35654,"NAN","NAN",16.77288,-40.94683,-12.47168,-7.097706,-12.913,0.3582118,37.54792,37.96387,37.85762,39.18457,37.91866,37.95709,38.29165,38.96756,37.23597,0.684042,0.703414,0.698437,0.7616414,0.7012897,0.7030889,0.718838,0.751134,0.669676,1.000076,12.24492,13.69635,321.7,368.4,325.6,-45.66,10.76
"2014-08-22 00:18:00",1290786,-4.784135,-1.946929,-69.5957,14.99806,-22.83706,15.09643,0,-0.9973407,-51.21547,12.23442,0,0.004,7999,0,0,0,10.78454,11.51015,10.09494,15.86433,16.44724,16.63716,17.15048,16.24296,14.17552,11.35327,"NAN","NAN",16.76982,-40.89988,-12.48868,-7.119766,-12.93596,0.3582114,37.56375,37.90057,37.84858,39.27499,37.89153,37.94804,38.31199,38.97208,37.2631,0.6847731,0.7004439,0.6980162,0.7660549,0.7000219,0.7026666,0.7198031,0.7513532,0.6709209,1.000076,12.23362,13.29049,321.3,368.6,324.9,-46.53,10.8
"2014-08-22 00:19:00",1290787,-4.767049,-1.929013,-70.4528,14.98166,-22.89304,15.0833,0,-0.9973407,-51.94313,12.22786,0,0.004,7999,0,0,0,10.77786,11.46753,10.07882,15.8545,16.45032,16.63716,17.15048,16.22961,14.17206,11.35327,"NAN","NAN",16.77679,-40.8684,-12.48527,-7.1394,-12.95896,0.3582114,37.55471,37.90735,37.87119,39.13032,37.939,37.94578,38.30747,38.95399,37.26535,0.6843548,0.7007609,0.6990703,0.7590075,0.7022431,0.7025606,0.7195868,0.7504797,0.6710241,1.000089,12.23362,13.55649,320.4,368.5,324.1,-47.17,10.77
"2014-08-22 00:20:00",1290788,-4.767067,-1.911103,-70.79568,14.94232,-22.78111,15.05708,0,-0.9973416,-52.22303,12.22458,0,0.004,7999,0,0,0,10.73165,11.48393,10.07214,15.85123,16.44068,16.63716,17.15048,16.23967,14.17206,11.35327,"NAN","NAN",16.77331,-40.84459,-12.49896,-7.159068,-12.98118,0.3582106,37.59992,37.89605,37.87345,39.1371,37.92544,37.92092,38.31652,38.94495,37.24727,0.6864507,0.700233,0.6991758,0.7593361,0.7016072,0.7013978,0.7200153,0.750045,0.6701942,1.000076,12.22119,13.4562,319.8,368.4,323.9,-47.45,10.77
"2014-08-22 00:21:00",1290789,-4.806943,-1.905135,-71.53851,14.92918,-22.89306,15.02756,0,-0.9973417,-52.7268,12.182,0,0.004,7999,0,0,0,10.72892,11.45114,10.07882,15.84098,16.4374,16.64394,17.1472,16.22961,14.17206,11.35669,"NAN","NAN",16.78379,-40.84455,-12.51601,-7.175436,-13.00505,0.3582102,37.56375,37.93222,37.86892,39.11449,37.91866,37.95031,38.28939,38.99016,37.23823,0.6847731,0.7019299,0.6989651,0.758242,0.7012897,0.7027711,0.7187312,0.7522264,0.6697801,1.000076,12.20877,13.58874,319,368.2,323.1,-47.95,10.71
"2014-08-22 00:22:00",1290790,-4.81833,-1.899161,-71.82423,14.91605,-23.00501,15.01445,0,-0.9973421,-53.00668,12.16889,0,0.004,7999,0,0,0,10.72238,11.36278,10.02627,15.83791,16.44068,16.63367,17.15048,16.24644,14.17206,11.35,"NAN","NAN",16.77003,-40.86303,-12.53389,-7.195057,-13.02974,0.35821,37.57279,37.91639,37.86892,39.12806,37.91866,37.93222,38.31425,38.9653,37.22014,0.6851916,0.7011839,0.6989648,0.7589003,0.7012904,0.7019253,0.7199088,0.7510252,0.6689522,1.000064,12.20877,13.45806,318.6,368,322.8,-48.14,10.68
"2014-08-22 00:23:00",1290791,-4.812613,-1.881236,-71.76714,14.87672,-22.27738,14.98822,0,-0.9973428,-53.39854,12.14922,0,0.004,7999,0,0,0,10.71896,11.34951,10.0133,15.85532,16.44068,16.64415,17.15048,16.24316,14.17206,11.32382,"NAN","NAN",16.78052,-40.89475,-12.55259,-7.213029,-13.05099,0.3582088,37.57279,37.91188,37.85762,39.20266,37.89379,37.96839,38.30295,38.96078,37.24501,0.6851917,0.7009723,0.6984374,0.7625253,0.7001275,0.7036185,0.7193727,0.7508068,0.6700932,1.000051,12.20877,13.3145,318.5,368.6,322.3,-49.23,10.79
"2014-08-22 00:24:00",1290792,-4.761354,-1.863319,-71.88142,14.84068,-22.61321,14.95872,0,-0.9973428,-53.39854,12.15577,0,0.004,7999,0,0,0,10.71555,11.37917,10.02653,15.86228,16.44395,16.63367,17.15048,16.23987,14.17206,11.29437,"NAN","NAN",16.78729,-40.9341,-12.57389,-7.227755,-13.074,0.3582088,37.56827,37.92318,37.87345,39.11223,37.91866,37.96613,38.28939,38.94495,37.26535,0.6849823,0.7015013,0.6991758,0.7581311,0.7012906,0.7035157,0.718731,0.7500467,0.6710253,1.000064,12.205,13.52895,318.2,368.1,322.3,-48.67,10.7
"2014-08-22 00:25:00",1290793,-4.778425,-1.88123,-71.48153,14.83412,-22.16545,14.94232,0,-0.9973438,-53.28665,12.14922,0,0.004,7999,0,0,0,10.70872,11.43803,10.01972,15.86228,16.44395,16.63388,17.14698,16.23659,14.17879,11.29125,"NAN","NAN",16.77353,-40.9842,-12.58918,-7.245722,-13.09695,0.3582077,37.57053,37.91188,37.8531,39.15744,37.92092,37.98421,38.28939,38.98338,37.22918,0.685087,0.7009725,0.6982265,0.7603281,0.7013983,0.704366,0.7187312,0.751898,0.6693648,1.000064,12.18618,13.70937,318.5,368.4,322.4,-48.95,10.77
"2014-08-22 00:26:00",1290794,-4.73855,-1.851366,-71.08157,14.81772,-21.94156,14.92262,0,-1.080456,-53.11873,12.17247,0,0.004,7999,0,0,0,10.69919,11.50033,10.04619,15.84569,16.44395,16.64087,17.15048,16.2331,14.17206,11.28456,"NAN","NAN",16.78401,-41.03146,-12.60877,-7.26535,-13.11825,0.3582071,37.56827,37.91413,37.88023,39.14388,37.91413,37.93222,38.32104,38.91556,37.22692,0.6849825,0.7010781,0.6994928,0.759664,0.7010784,0.7019255,0.7202297,0.748634,0.6692612,1.000064,12.18618,13.30348,318.9,368.6,322.7,-48.76,10.79
"2014-08-22 00:27:00",1290795,-4.675898,-1.815532,-70.91018,14.78494,-21.82963,14.89967,0,-1.163569,-53.00681,12.1951,0,0.004,7999,0,0,0,10.70601,11.53639,10.04278,15.86596,16.43085,16.64415,17.14698,16.23659,14.17206,11.27802,"NAN","NAN",16.77724,-41.07858,-12.62835,-7.284977,-13.14209,0.3582068,37.55471,37.90283,37.88023,39.1258,37.90509,37.96387,38.28035,39.06702,37.21562,0.6843557,0.7005497,0.6994929,0.7587874,0.7006555,0.7034085,0.7183041,0.7559673,0.6687438,1.000102,12.18618,13.5207,318.8,368.5,322.9,-48.49,10.79
"2014-08-22 00:28:00",1290796,-4.658799,-1.821499,-70.56741,14.79149,-22.38938,14.89639,0,-0.9973454,-52.39115,12.19526,0,0.004,7999,0,0,0,10.68638,11.50033,10.02011,15.83586,16.44068,16.64764,17.15048,16.24316,14.17879,11.27817,"NAN","NAN",16.78052,-41.12822,-12.64025,-7.306231,-13.16507,0.3582054,37.55471,37.95031,37.86892,39.14162,37.90735,37.96839,38.30973,38.96304,37.24275,0.6843553,0.7027761,0.6989647,0.7595547,0.7007611,0.7036214,0.7196949,0.7509167,0.6699863,1.000076,12.16358,13.62196,319.2,368,323.5,-47.28,10.67
"2014-08-22 00:29:00",1290797,-4.681581,-1.845388,-70.22456,14.79476,-22.5573,14.90295,0,-0.9973454,-51.99934,12.16249,0,0.004,7999,0,0,0,10.65068,11.49049,10.0167,15.83668,16.43719,16.64087,17.15048,16.23659,14.17552,11.27831,"NAN","NAN",16.78751,-41.1597,-12.6573,-7.327501,-13.18723,0.3582054,37.57505,37.94126,37.86214,39.19587,37.9164,37.93222,38.28713,38.97886,37.25179,0.6852991,0.7023559,0.6986486,0.7621982,0.7011842,0.7019255,0.7186243,0.7516817,0.6704046,1.000051,12.16358,13.6643,319.6,367.8,323.7,-46.92,10.65
"2014-08-22 00:30:00",1290798,-4.738654,-1.875296,-69.48182,14.78166,-22.3894,14.89311,0,-0.9973465,-51.38369,12.15593,0,0.004,7999,0,0,0,10.64399,11.48721,10.02024,15.82255,16.43413,16.64764,17.15048,16.23659,14.17533,11.27475,"NAN","NAN",16.8015,-41.18621,-12.67644,-7.349002,-13.2098,0.3582043,37.55471,37.90735,37.86666,39.11901,37.92092,37.93448,38.30069,38.95626,37.21336,0.6843557,0.7007611,0.6988594,0.75846,0.7013955,0.7020318,0.7192658,0.7505894,0.6686406,1.000064,12.16358,13.54926,320.3,368,324.3,-46.48,10.67
"2014-08-22 00:31:00",1290799,-4.693149,-1.881292,-69.25327,14.77838,-22.16552,14.88328,0,-0.9973467,-51.27176,12.14266,0,0.004,7999,0,0,0,10.63717,11.49079,10.01696,15.81292,16.41448,16.64415,17.15376,16.23659,14.17879,11.2682,"NAN","NAN",16.7945,-41.18888,-12.69442,-7.369501,-13.23033,0.3582038,37.60218,37.88927,37.87345,39.1371,37.91866,37.96161,38.31199,38.9766,37.23371,0.6865544,0.6999168,0.6991759,0.7593352,0.7012897,0.7033005,0.7198007,0.7515704,0.6695721,1.000051,12.15981,13.31641,320.5,368.1,324.4,-46.56,10.7
"2014-08-22 00:32:00",1290800,-4.681759,-1.869347,-68.73904,14.78494,-22.72526,14.87672,0,-0.9973471,-50.48814,12.15265,0,0.004,7999,0,0,0,10.65068,11.42163,10.01054,15.81024,16.41447,16.64436,17.15376,16.23659,14.17206,11.26507,"NAN","NAN",16.78401,-41.19666,-12.71573,-7.391594,-13.2542,0.3582035,37.56827,37.90509,37.87119,39.10997,37.91413,37.96161,38.28939,38.93591,37.23145,0.6849823,0.7006552,0.6990702,0.7580209,0.7010781,0.7033008,0.718731,0.7496124,0.6694727,1.000064,12.14475,13.80054,321,367.5,325.2,-45.13,10.59
"2014-08-22 00:33:00",1290801,-4.687461,-1.899212,-68.1677,14.80133,-22.72528,14.90295,0,-0.9973479,-49.8165,12.13939,0,0.004,7999,0,0,0,10.6474,11.37246,9.964276,15.8168,16.40793,16.64764,17.15048,16.23987,14.18243,11.22893,"NAN","NAN",16.791,-41.1886,-12.73023,-7.412872,-13.27722,0.3582022,37.54792,37.96161,37.85988,39.14388,37.91188,37.97969,38.29391,38.98564,37.20884,0.6840422,0.7033073,0.6985433,0.759664,0.7009728,0.7041498,0.718945,0.7520078,0.6684341,1.000025,12.14099,13.69195,321.7,367.7,325.8,-44.65,10.62
"2014-08-22 00:34:00",1290802,-4.710243,-1.899212,-67.31061,14.77836,-22.72528,14.88655,0,-0.9973479,-49.36871,12.13627,0,0.004,7999,0,0,0,10.61795,11.37946,9.948155,15.81352,16.42103,16.64764,17.15048,16.23659,14.17206,11.22639,"NAN","NAN",16.7945,-41.1886,-12.74556,-7.432507,-13.29767,0.3582022,37.54792,37.939,37.83728,39.23204,37.89831,37.95256,38.30521,38.97886,37.23371,0.6840425,0.7022495,0.6974874,0.763952,0.7003388,0.7028769,0.7194796,0.7516792,0.6695719,1.000051,12.13685,13.3606,322.4,367.6,326.2,-44.15,10.6
"2014-08-22 00:35:00",1290803,-4.681724,-1.893222,-66.96783,14.78166,-22.61335,14.8935,0,-0.9973488,-48.80902,12.13284,0,0.004,7999,0,0,0,10.57868,11.3431,9.925095,15.8004,16.4112,16.64764,17.15048,16.23659,14.18589,11.20305,"NAN","NAN",16.79101,-41.16481,-12.76332,-7.450422,-13.32138,0.3582013,37.56149,37.90961,37.86214,39.16875,37.91866,37.93222,38.30747,38.95173,37.20658,0.6846684,0.7008666,0.698648,0.7608726,0.70129,0.7019255,0.7195867,0.750372,0.6683303,1.000025,12.12028,13.41951,322.8,367.7,326.8,-43.73,10.63
"2014-08-22 00:36:00",1290804,-4.698789,-1.905158,-66.11076,14.78822,-22.50141,14.89311,0,-0.997349,-48.19332,12.11334,0,0.004,7999,0,0,0,10.57841,11.29392,9.938705,15.81065,16.41775,16.64436,17.15048,16.23659,14.18608,11.19623,"NAN","NAN",16.798,-41.13854,-12.77778,-7.470039,-13.34266,0.3582008,37.56149,37.90961,37.86892,39.12354,37.9277,37.9164,38.30069,38.90652,37.21562,0.6846684,0.7008665,0.6989646,0.7586789,0.7017134,0.7011859,0.719266,0.7481977,0.6687434,1.000051,12.11614,13.69472,323.7,367.8,327.3,-43.34,10.65
"2014-08-22 00:37:00",1290805,-4.687399,-1.899187,-65.53938,14.76852,-21.82973,14.85397,0,-0.9973493,-48.02541,12.13939,0,0.004,7999,0,0,0,10.57213,11.31031,9.925092,15.80061,16.39153,16.64415,17.15048,16.23659,14.18243,11.19964,"NAN","NAN",16.79799,-41.10438,-12.79483,-7.488861,-13.36567,0.3582006,37.59314,37.89153,37.86666,39.16197,37.92092,37.94352,38.30295,38.97434,37.20206,0.6861368,0.7000216,0.6988594,0.7605428,0.7013955,0.7024536,0.7193726,0.7514629,0.6681239,1.000051,12.11614,13.70853,324.1,368.3,327.6,-43.49,10.74
"2014-08-22 00:38:00",1290806,-4.624757,-1.869329,-65.48228,14.75867,-22.05364,14.84068,0,-0.99735,-48.02545,12.1461,0,0.004,7999,0,0,0,10.56872,11.34013,9.921692,15.81085,16.37535,16.64436,17.15048,16.23659,14.17552,11.20988,"NAN","NAN",16.79778,-41.05443,-12.81359,-7.51096,-13.38699,0.3581995,37.60444,37.90735,37.87119,39.1484,37.91413,37.95256,38.30295,38.96304,37.2111,0.6866607,0.700761,0.6990702,0.7598833,0.7010781,0.702877,0.7193727,0.7509158,0.6685368,1.000038,12.11614,13.46002,324.1,368,327.6,-43.12,10.68
"2014-08-22 00:39:00",1290807,-4.613366,-1.875301,-65.31086,14.73574,-21.82975,14.82428,0,-0.99735,-47.68961,12.15967,0,0.004,7999,0,0,0,10.57213,11.3437,9.9319,15.8045,16.37514,16.64764,17.15048,16.23659,14.17898,11.19637,"NAN","NAN",16.78751,-40.9941,-12.8349,-7.533049,-13.4083,0.3581995,37.55923,37.92092,37.86892,39.14162,37.89605,37.98421,38.28487,38.9879,37.22014,0.6845648,0.7013955,0.6989646,0.7595543,0.7002334,0.7043653,0.7185176,0.7521166,0.6689515,1.000013,12.10861,13.61373,324.2,368.1,328,-42.83,10.71
"2014-08-22 00:40:00",1290808,-4.613342,-1.875291,-65.25377,14.71606,-21.88574,14.81772,0,-0.9973508,-47.63367,12.14985,0,0.004,7999,0,0,0,10.5754,11.33327,9.931773,15.80103,16.38825,16.64764,17.1472,16.23659,14.18225,11.20647,"NAN","NAN",16.80849,-40.92101,-12.85185,-7.553452,-13.43037,0.3581987,37.55244,37.88927,37.85988,39.20491,37.90283,37.92996,38.30295,38.98338,37.23597,0.6842503,0.6999156,0.6985454,0.7626479,0.7005517,0.7018197,0.7193727,0.751899,0.6696756,1.000025,12.07095,13.47936,324.1,368,328,-42.74,10.69
"2014-08-22 00:41:00",1290809,-4.619025,-1.899175,-65.02522,14.70951,-21.88574,14.81116,0,-0.9973509,-47.35381,12.1269,0,0.004,7999,0,0,0,10.58851,11.33714,9.925095,15.80102,16.37514,16.64764,17.15048,16.23659,14.18243,11.21329,"NAN","NAN",16.8052,-40.84501,-12.87059,-7.575531,-13.4508,0.3581208,37.57279,37.90283,37.85536,39.16648,37.91866,37.94804,38.28939,39.05346,37.22014,0.6851917,0.7005498,0.6983318,0.7607622,0.7012897,0.7026653,0.7187315,0.7553117,0.6689506,1.000013,12.07095,13.5401,324.3,368,328.2,-42.52,10.68
"2014-08-22 00:42:00",1290810,-4.613316,-1.869308,-64.6824,14.68327,-21.66185,14.78494,0,-0.9973512,-47.29784,12.13704,0,0.004,7999,0,0,0,10.58523,11.29122,9.93531,15.80103,16.38825,16.64764,17.15048,16.23659,14.18243,11.2066,"NAN","NAN",16.80499,-40.76381,-12.89181,-7.594301,-13.47202,0.3581981,37.56149,37.92544,37.86892,39.12128,37.92092,37.96839,38.28035,38.99694,37.20884,0.6846686,0.7016072,0.6989646,0.7585702,0.7013972,0.7036235,0.7183039,0.7525576,0.6684342,1,12.07095,13.64595,324.5,368.1,328.3,-42.52,10.7
"2014-08-22 00:43:00",1290811,-4.607552,-1.863308,-64.68243,14.68327,-21.77381,14.78166,0,-0.9973517,-47.35384,12.11692,0,0.004,7999,0,0,0,10.58523,11.26456,9.932149,15.81126,16.38169,16.64764,17.15048,16.23659,14.18589,11.19978,"NAN","NAN",16.80849,-40.68798,-12.9104,-7.61139,-13.49231,0.3581973,37.56827,37.88023,37.85988,39.16423,37.91866,37.94804,38.30069,38.94721,37.25631,0.6849826,0.6994939,0.6985428,0.7606525,0.7012899,0.7026652,0.7192658,0.7501545,0.6706178,1.000013,12.06342,13.58889,324.5,368,328.2,-42.55,10.67
"2014-08-22 00:44:00",1290812,-4.613247,-1.851364,-64.73957,14.67999,-21.88576,14.7718,0,-0.9973517,-47.35384,12.10679,0,0.004,7999,0,0,0,10.59832,11.30406,9.922066,15.79079,16.37186,16.64764,17.15048,16.23659,14.18608,11.20348,"NAN","NAN",16.80149,-40.61452,-12.9283,-7.628569,-13.51447,0.3581973,37.57053,37.93674,37.8644,39.1371,37.9164,37.94804,38.30295,38.99469,37.22466,0.6850918,0.7021402,0.698754,0.7593352,0.7011839,0.7026653,0.7193726,0.7524435,0.6691576,1.000013,12.04836,13.33946,324.4,367.8,328.1,-42.46,10.64
"2014-08-22 00:45:00",1290813,-4.613242,-1.857334,-64.7966,14.68327,-21.77377,14.7718,0,-0.99735,-47.35376,12.10069,0,0.004,7999,0,0,0,10.59505,11.26826,9.921692,15.79466,16.37514,16.64436,17.15048,16.23659,14.18243,11.17702,"NAN","NAN",16.82594,-40.53605,-12.94276,-7.645739,-13.5349,0.3581216,37.57505,37.90283,37.86892,39.12806,37.90735,37.95483,38.30521,38.97886,37.20432,0.6852965,0.70055,0.6989646,0.7588975,0.7007613,0.7029828,0.7194798,0.7516802,0.6682267,1.000013,12.04836,13.64872,324.4,367.9,328.1,-42.6,10.66